Location: Brachstadt
(48.6975°N, 10.6755°E)
Time: 03:00:54
(UTC+00:00)

Nadezhda 4 Rocket - Pass Details

Date: 18 September 2020
Orbit: 949 x 993 km, 82.9° (Epoch: 24 October)

Event Time Altitude Azimuth Distance (km) Brightness Sun altitude
Rises 18:50:12 0° 352° (N) 3,641 7.4 -14.9°
Reaches altitude 10° 18:52:44 10° 355° (N) 2,688 6.6 -15.3°
Maximum altitude 18:58:51 70° 79° (ENE) 1,011 3.9 -16.2°
Enters shadow 19:04:42 11° 162° (SSE) 2,582 5.8 -17.1°
